Khon Kaen, Thailand

11:01 PM +07 on October 17, 2017 (GMT +0700)
Khon Kaen

Weather History for VTUK - October, 2012

Change the Weather History Date:

Thursday, October 4, 2012

  Actual Average Record
Temperature  
Mean Temperature 84 °F -  
Max Temperature 92 °F 89 °F - ()
Min Temperature 75 °F 71 °F - ()
Cooling Degree Days 18    
Growing Degree Days 34 (Base 50)    
Moisture  
Dew Point 77 °F    
Average Humidity 83    
Maximum Humidity 100    
Minimum Humidity 56    
Precipitation  
Precipitation T in 0.12 in - ()
Sea Level Pressure  
Sea Level Pressure 29.75 in    
Wind  
Wind Speed 3 mph ()    
Max Wind Speed 9 mph    
Max Gust Speed -    
Visibility 5.5 miles    
Events Rain    
T = Trace of Precipitation, MM = Missing Value Source: Averaged Metar Reports

Daily Weather History Graph

Daily Weather History Graph

Search for Another Location

Airport or City:

Trip Planner

Search our weather history database for the weather conditions in past years. The results will help you decide how hot, cold, wet, or windy it might be!

Date:

Astronomy

Oct. 04, 2012 Rise Set
Actual Time 5:59 AM +07 5:55 PM +07
Civil Twilight 5:37 AM +07 6:16 PM +07
Nautical Twilight 5:12 AM +07 6:41 PM +07
Astronomical Twilight 4:47 AM +07 7:06 PM +07
Moon 8:45 PM +07 (10/4) 9:10 AM +07 (10/4)
Length of Visible Light 12h 39m
Length of Day
11h 56m
Waning Gibbous, 85% of the Moon is Illuminated
Oct 4
Waning Gibbous
Oct 8
Last Quarter
Oct 15
New
Oct 22
First Quarter
Oct 30
Full

Hourly Weather History & Observations

Time (+07) Temp. Heat Index Dew Point Humidity Pressure Visibility Wind Dir Wind Speed Gust Speed Precip Events Conditions
1:00 AM 79 °F - 76 °F 88% 29.77 in 4 mi SSW 2.3 mph - -   Mist
6:00 AM 75.2 °F - 75.2 °F 100% 29.74 in 5.0 mi Calm Calm - N/A   Scattered Clouds
7:00 AM 78 °F - 75 °F 87% 29.76 in 4 mi WNW 1.2 mph - -   Mist
7:00 AM 77.0 °F - 77.0 °F 100% 29.77 in 3.7 mi WNW 2.3 mph - N/A   Unknown
8:00 AM 80.6 °F 87.1 °F 77.0 °F 89% 29.80 in 3.7 mi WSW 3.5 mph - N/A   Unknown
9:00 AM 82.4 °F 90.9 °F 77.0 °F 84% 29.80 in 4.3 mi WSW 4.6 mph - N/A   Scattered Clouds
10:00 AM 86.0 °F 99.3 °F 78.8 °F 79% 29.83 in 6.2 mi Variable 3.5 mph - N/A   Scattered Clouds
11:00 AM 87.8 °F 102.5 °F 78.8 °F 75% 29.80 in 6.2 mi West 4.6 mph - N/A   Mostly Cloudy
12:00 PM 89.6 °F 102.2 °F 77.0 °F 66% 29.77 in 6.2 mi SW 4.6 mph - N/A   Mostly Cloudy
1:00 PM 90 °F - 76 °F 56% 29.71 in 6 mi West 5.8 mph - -   Mostly Cloudy
1:00 PM 86.0 °F 95.1 °F 75.2 °F 70% 29.74 in 6.2 mi West 9.2 mph - N/A   Mostly Cloudy
2:00 PM 87.8 °F 102.5 °F 78.8 °F 75% 29.71 in 6.2 mi Variable 4.6 mph - N/A   Mostly Cloudy
3:00 PM 89.6 °F 104.7 °F 78.8 °F 70% 29.68 in 6.2 mi Variable 4.6 mph - N/A   Mostly Cloudy
4:00 PM 87.8 °F 102.5 °F 78.8 °F 75% 29.68 in 6.2 mi Variable 2.3 mph - N/A   Mostly Cloudy
5:00 PM 80.6 °F 87.1 °F 77.0 °F 89% 29.71 in 6.2 mi NNE 9.2 mph - N/A   Mostly Cloudy
6:00 PM 78.8 °F - 77.0 °F 94% 29.71 in 6.2 mi East 3.5 mph - N/A   Mostly Cloudy
7:00 PM 79 °F - 75 °F 85% 29.73 in 6 mi East 4.6 mph - - Rain Light Rain
7:00 PM 78.8 °F - 77.0 °F 94% 29.74 in 6.2 mi East 4.6 mph - N/A   Mostly Cloudy
8:00 PM 78.8 °F - 78.8 °F 100% 29.77 in 6.2 mi Variable 2.3 mph - N/A   Mostly Cloudy